Location: Newark
(43.0000°N, 1.6781°W)
Time: 08:33:11
(UTC+00:00)

ITUPSAT 1 - Visible Passes

Search period start: 11 May 2021 00:00
Search period end: 21 May 2021 00:00
Orbit: 702 x 712 km, 98.6° (Epoch: 10 May)

Date Brightness Start Highest point End Pass type
(mag) Time Alt. Az. Time Alt. Az. Time Alt. Az.
11 May ? 20:23:13 10° N 20:27:10 26° WNW 20:31:06 10° WSW visible
12 May ? 21:09:35 10° NW 21:10:47 11° WNW 21:11:59 10° WNW visible
13 May ? 20:13:30 10° N 20:17:44 32° WNW 20:21:56 10° SW visible
14 May ? 20:59:08 10° NNW 21:01:24 13° WNW 21:03:40 10° W visible
15 May ? 20:03:50 10° N 20:08:17 39° WNW 20:12:42 10° SW visible
16 May ? 20:49:05 10° NNW 20:52:01 16° WNW 20:54:56 10° W visible
17 May ? 19:54:12 10° N 19:58:49 49° WNW 20:03:23 10° SW visible
18 May ? 20:39:11 10° NNW 20:42:37 20° WNW 20:46:01 10° WSW visible
20 May ? 20:29:23 10° NNW 20:33:11 24° WNW 20:36:57 10° WSW visible
